Year,Month,Day,Hour,Minute,Value (Times are PST for temperature in C)
2015,02,05,00,00,8.60
2015,02,05,00,01,8.60
2015,02,05,00,02,8.60
2015,02,05,00,03,8.60
2015,02,05,00,04,8.60
2015,02,05,00,05,8.60
2015,02,05,00,06,8.60
2015,02,05,00,07,8.60
2015,02,05,00,08,8.60
2015,02,05,00,09,8.60
2015,02,05,00,10,8.60
2015,02,05,00,11,8.70
2015,02,05,00,12,8.70
2015,02,05,00,13,8.70
2015,02,05,00,14,8.70
2015,02,05,00,15,8.70
2015,02,05,00,16,8.70
2015,02,05,00,17,8.70
2015,02,05,00,18,8.70
2015,02,05,00,19,8.70
2015,02,05,00,20,8.70
2015,02,05,00,21,8.70
2015,02,05,00,22,8.70
2015,02,05,00,23,8.70
2015,02,05,00,24,8.70
2015,02,05,00,25,8.70
2015,02,05,00,26,8.70
2015,02,05,00,27,8.70
2015,02,05,00,28,8.70
2015,02,05,00,29,8.70
2015,02,05,00,30,8.60
2015,02,05,00,31,8.70
2015,02,05,00,32,8.70
2015,02,05,00,33,8.70
2015,02,05,00,34,8.70
2015,02,05,00,35,8.70
2015,02,05,00,36,8.70
2015,02,05,00,37,8.70
2015,02,05,00,38,8.70
2015,02,05,00,39,8.70
2015,02,05,00,40,8.70
2015,02,05,00,41,8.70
2015,02,05,00,42,8.70
2015,02,05,00,43,8.60
2015,02,05,00,44,8.60
2015,02,05,00,45,8.60
2015,02,05,00,46,8.60
2015,02,05,00,47,8.60
2015,02,05,00,48,8.60
2015,02,05,00,49,8.60
2015,02,05,00,50,8.60
2015,02,05,00,51,8.60
2015,02,05,00,52,8.60
2015,02,05,00,53,8.60
2015,02,05,00,54,8.60
2015,02,05,00,55,8.60
2015,02,05,00,56,8.60
2015,02,05,00,57,8.60
2015,02,05,00,58,8.60
2015,02,05,00,59,8.60
2015,02,05,01,00,8.60
2015,02,05,01,01,8.60
2015,02,05,01,02,8.60
2015,02,05,01,03,8.60
2015,02,05,01,04,8.60
2015,02,05,01,05,8.60
2015,02,05,01,06,8.60
2015,02,05,01,07,8.60
2015,02,05,01,08,8.60
2015,02,05,01,09,8.60
2015,02,05,01,10,8.60
2015,02,05,01,11,8.60
2015,02,05,01,12,8.50
2015,02,05,01,13,8.60
2015,02,05,01,14,8.60
2015,02,05,01,15,8.60
2015,02,05,01,16,8.60
2015,02,05,01,17,8.60
2015,02,05,01,18,8.60
2015,02,05,01,19,8.60
2015,02,05,01,20,8.60
2015,02,05,01,21,8.60
2015,02,05,01,22,8.60
2015,02,05,01,23,8.60
2015,02,05,01,24,8.60
2015,02,05,01,25,8.50
2015,02,05,01,26,8.50
2015,02,05,01,27,8.50
2015,02,05,01,28,8.50
2015,02,05,01,29,8.50
2015,02,05,01,30,8.50
2015,02,05,01,31,8.50
2015,02,05,01,32,8.50
2015,02,05,01,33,8.50
2015,02,05,01,34,8.50
2015,02,05,01,35,8.50
2015,02,05,01,36,8.50
2015,02,05,01,37,8.50
2015,02,05,01,38,8.50
2015,02,05,01,39,8.50
2015,02,05,01,40,8.50
2015,02,05,01,41,8.50
2015,02,05,01,42,8.50
2015,02,05,01,43,8.50
2015,02,05,01,44,8.50
2015,02,05,01,45,8.50
2015,02,05,01,46,8.50
2015,02,05,01,47,8.50
2015,02,05,01,48,8.50
2015,02,05,01,49,8.50
2015,02,05,01,50,8.50
2015,02,05,01,51,8.50
2015,02,05,01,52,8.50
2015,02,05,01,53,8.50
2015,02,05,01,54,8.50
2015,02,05,01,55,8.50
2015,02,05,01,56,8.50
2015,02,05,01,57,8.60
2015,02,05,01,58,8.60
2015,02,05,01,59,8.60
2015,02,05,02,00,8.60
2015,02,05,02,01,8.60
2015,02,05,02,02,8.60
2015,02,05,02,03,8.60
2015,02,05,02,04,8.60
2015,02,05,02,05,8.60
2015,02,05,02,06,8.60
2015,02,05,02,07,8.60
2015,02,05,02,08,8.60
2015,02,05,02,09,8.60
2015,02,05,02,10,8.70
2015,02,05,02,11,8.70
2015,02,05,02,12,8.70
2015,02,05,02,13,8.70
2015,02,05,02,14,8.70
2015,02,05,02,15,8.70
2015,02,05,02,16,8.70
2015,02,05,02,17,8.70
2015,02,05,02,18,8.70
2015,02,05,02,19,8.70
2015,02,05,02,20,8.70
2015,02,05,02,21,8.70
2015,02,05,02,22,8.70
2015,02,05,02,23,8.70
2015,02,05,02,24,8.80
2015,02,05,02,25,8.80
2015,02,05,02,26,8.80
2015,02,05,02,27,8.80
2015,02,05,02,28,8.80
2015,02,05,02,29,8.80
2015,02,05,02,30,8.80
2015,02,05,02,31,8.80
2015,02,05,02,32,8.80
2015,02,05,02,33,8.80
2015,02,05,02,34,8.70
2015,02,05,02,35,8.70
2015,02,05,02,36,8.70
2015,02,05,02,37,8.70
2015,02,05,02,38,8.70
2015,02,05,02,39,8.70
2015,02,05,02,40,8.70
2015,02,05,02,41,8.70
2015,02,05,02,42,8.60
2015,02,05,02,43,8.60
2015,02,05,02,44,8.60
2015,02,05,02,45,8.60
2015,02,05,02,46,8.60
2015,02,05,02,47,8.60
2015,02,05,02,48,8.60
2015,02,05,02,49,8.50
2015,02,05,02,50,8.50
2015,02,05,02,51,8.50
2015,02,05,02,52,8.50
2015,02,05,02,53,8.40
2015,02,05,02,54,8.40
2015,02,05,02,55,8.40
2015,02,05,02,56,8.40
2015,02,05,02,57,8.40
2015,02,05,02,58,8.40
2015,02,05,02,59,8.40
2015,02,05,03,00,8.40
2015,02,05,03,01,8.40
2015,02,05,03,02,8.40
2015,02,05,03,03,8.40
2015,02,05,03,04,8.40
2015,02,05,03,05,8.40
2015,02,05,03,06,8.40
2015,02,05,03,07,8.40
2015,02,05,03,08,8.40
2015,02,05,03,09,8.40
2015,02,05,03,10,8.40
2015,02,05,03,11,8.40
2015,02,05,03,12,8.40
2015,02,05,03,13,8.40
2015,02,05,03,14,8.40
2015,02,05,03,15,8.40
2015,02,05,03,16,8.40
2015,02,05,03,17,8.40
2015,02,05,03,18,8.40
2015,02,05,03,19,8.40
2015,02,05,03,20,8.40
2015,02,05,03,21,8.40
2015,02,05,03,22,8.40
2015,02,05,03,23,8.40
2015,02,05,03,24,8.40
2015,02,05,03,25,8.40
2015,02,05,03,26,8.40
2015,02,05,03,27,8.40
2015,02,05,03,28,8.40
2015,02,05,03,29,8.40
2015,02,05,03,30,8.40
2015,02,05,03,31,8.50
2015,02,05,03,32,8.50
2015,02,05,03,33,8.50
2015,02,05,03,34,8.50
2015,02,05,03,35,8.50
2015,02,05,03,36,8.50
2015,02,05,03,37,8.50
2015,02,05,03,38,8.50
2015,02,05,03,39,8.50
2015,02,05,03,40,8.50
2015,02,05,03,41,8.50
2015,02,05,03,42,8.50
2015,02,05,03,43,8.50
2015,02,05,03,44,8.50
2015,02,05,03,45,8.50
2015,02,05,03,46,8.50
2015,02,05,03,47,8.50
2015,02,05,03,48,8.50
2015,02,05,03,49,8.60
2015,02,05,03,50,8.60
2015,02,05,03,51,8.50
2015,02,05,03,52,8.50
2015,02,05,03,53,8.60
2015,02,05,03,54,8.60
2015,02,05,03,55,8.60
2015,02,05,03,56,8.60
2015,02,05,03,57,8.60
2015,02,05,03,58,8.60
2015,02,05,03,59,8.60
2015,02,05,04,00,8.60
2015,02,05,04,01,8.60
2015,02,05,04,02,8.60
2015,02,05,04,03,8.60
2015,02,05,04,04,8.60
2015,02,05,04,05,8.60
2015,02,05,04,06,8.60
2015,02,05,04,07,8.60
2015,02,05,04,08,8.70
2015,02,05,04,09,8.70
2015,02,05,04,10,8.70
2015,02,05,04,11,8.70
2015,02,05,04,12,8.70
2015,02,05,04,13,8.70
2015,02,05,04,14,8.70
2015,02,05,04,15,8.70
2015,02,05,04,16,8.70
2015,02,05,04,17,8.70
2015,02,05,04,18,8.70
2015,02,05,04,19,8.70
2015,02,05,04,20,8.70
2015,02,05,04,21,8.80
2015,02,05,04,22,8.80
2015,02,05,04,23,8.80
2015,02,05,04,24,8.80
2015,02,05,04,25,8.80
2015,02,05,04,26,8.80
2015,02,05,04,27,8.80
2015,02,05,04,28,8.80
2015,02,05,04,29,8.80
2015,02,05,04,30,8.80
2015,02,05,04,31,8.80
2015,02,05,04,32,8.80
2015,02,05,04,33,8.80
2015,02,05,04,34,8.80
2015,02,05,04,35,8.80
2015,02,05,04,36,8.80
2015,02,05,04,37,8.80
2015,02,05,04,38,8.80
2015,02,05,04,39,8.80
2015,02,05,04,40,8.80
2015,02,05,04,41,8.80
2015,02,05,04,42,8.80
2015,02,05,04,43,8.80
2015,02,05,04,44,8.80
2015,02,05,04,45,8.80
2015,02,05,04,46,8.80
2015,02,05,04,47,8.80
2015,02,05,04,48,8.80
2015,02,05,04,49,8.80
2015,02,05,04,50,8.80
2015,02,05,04,51,8.80
2015,02,05,04,52,8.80
2015,02,05,04,53,8.80
2015,02,05,04,54,8.80
2015,02,05,04,55,8.80
2015,02,05,04,56,8.80
2015,02,05,04,57,8.80
2015,02,05,04,58,8.80
2015,02,05,04,59,8.80
2015,02,05,05,00,8.80
2015,02,05,05,01,8.80
2015,02,05,05,02,8.80
2015,02,05,05,03,8.80
2015,02,05,05,04,8.80
2015,02,05,05,05,8.80
2015,02,05,05,06,8.90
2015,02,05,05,07,8.90
2015,02,05,05,08,8.90
2015,02,05,05,09,8.90
2015,02,05,05,10,8.90
2015,02,05,05,11,8.90
2015,02,05,05,12,8.90
2015,02,05,05,13,8.90
2015,02,05,05,14,8.90
2015,02,05,05,15,8.90
2015,02,05,05,16,8.90
2015,02,05,05,17,8.90
2015,02,05,05,18,8.90
2015,02,05,05,19,8.90
2015,02,05,05,20,8.80
2015,02,05,05,21,8.80
2015,02,05,05,22,8.80
2015,02,05,05,23,8.80
2015,02,05,05,24,8.80
2015,02,05,05,25,8.80
2015,02,05,05,26,8.80
2015,02,05,05,27,8.80
2015,02,05,05,28,8.80
2015,02,05,05,29,8.80
2015,02,05,05,30,8.80
2015,02,05,05,31,8.80
2015,02,05,05,32,8.80
2015,02,05,05,33,8.80
2015,02,05,05,34,8.80
2015,02,05,05,35,8.80
2015,02,05,05,36,8.80
2015,02,05,05,37,8.80
2015,02,05,05,38,8.80
2015,02,05,05,39,8.80
2015,02,05,05,40,8.80
2015,02,05,05,41,8.80
2015,02,05,05,42,8.80
2015,02,05,05,43,8.90
2015,02,05,05,44,8.90
2015,02,05,05,45,8.90
2015,02,05,05,46,8.90
2015,02,05,05,47,8.90
2015,02,05,05,48,8.90
2015,02,05,05,49,9.00
2015,02,05,05,50,9.00
2015,02,05,05,51,9.10
2015,02,05,05,52,9.10
2015,02,05,05,53,9.10
2015,02,05,05,54,9.10
2015,02,05,05,55,9.10
2015,02,05,05,56,9.10
2015,02,05,05,57,9.10
2015,02,05,05,58,9.10
2015,02,05,05,59,9.20
2015,02,05,06,00,9.20
2015,02,05,06,01,9.20
2015,02,05,06,02,9.20
2015,02,05,06,03,9.20
2015,02,05,06,04,9.20
2015,02,05,06,05,9.20
2015,02,05,06,06,9.20
2015,02,05,06,07,9.20
2015,02,05,06,08,9.20
2015,02,05,06,09,9.20
2015,02,05,06,10,9.20
2015,02,05,06,11,9.20
2015,02,05,06,12,9.20
2015,02,05,06,13,9.20
2015,02,05,06,14,9.20
2015,02,05,06,15,9.20
2015,02,05,06,16,9.30
2015,02,05,06,17,9.30
2015,02,05,06,18,9.30
2015,02,05,06,19,9.30
2015,02,05,06,20,9.30
2015,02,05,06,21,9.30
2015,02,05,06,22,9.30
2015,02,05,06,23,9.30
2015,02,05,06,24,9.30
2015,02,05,06,25,9.30
2015,02,05,06,26,9.30
2015,02,05,06,27,9.30
2015,02,05,06,28,9.30
2015,02,05,06,29,9.30
2015,02,05,06,30,9.30
2015,02,05,06,31,9.30
2015,02,05,06,32,9.40
2015,02,05,06,33,9.40
2015,02,05,06,34,9.40
2015,02,05,06,35,9.40
2015,02,05,06,36,9.40
2015,02,05,06,37,9.40
2015,02,05,06,38,9.40
2015,02,05,06,39,9.40
2015,02,05,06,40,9.40
2015,02,05,06,41,9.40
2015,02,05,06,42,9.40
2015,02,05,06,43,9.40
2015,02,05,06,44,9.40
2015,02,05,06,45,9.40
2015,02,05,06,46,9.40
2015,02,05,06,47,9.40
2015,02,05,06,48,9.40
2015,02,05,06,49,9.30
2015,02,05,06,50,9.30
2015,02,05,06,51,9.30
2015,02,05,06,52,9.30
2015,02,05,06,53,9.30
2015,02,05,06,54,9.30
2015,02,05,06,55,9.30
2015,02,05,06,56,9.30
2015,02,05,06,57,9.30
2015,02,05,06,58,9.30
2015,02,05,06,59,9.30
2015,02,05,07,00,9.20
2015,02,05,07,01,9.20
2015,02,05,07,02,9.20
2015,02,05,07,03,9.20
2015,02,05,07,04,9.20
2015,02,05,07,05,9.20
2015,02,05,07,06,9.20
2015,02,05,07,07,9.20
2015,02,05,07,08,9.20
2015,02,05,07,09,9.20
2015,02,05,07,10,9.20
2015,02,05,07,11,9.20
2015,02,05,07,12,9.20
2015,02,05,07,13,9.20
2015,02,05,07,14,9.20
2015,02,05,07,15,9.20
2015,02,05,07,16,9.20
2015,02,05,07,17,9.20
2015,02,05,07,18,9.20
2015,02,05,07,19,9.10
2015,02,05,07,20,9.10
2015,02,05,07,21,9.20
2015,02,05,07,22,9.10
2015,02,05,07,23,9.10
2015,02,05,07,24,9.10
2015,02,05,07,25,9.20
2015,02,05,07,26,9.10
2015,02,05,07,27,9.10
2015,02,05,07,28,9.10
2015,02,05,07,29,9.20
2015,02,05,07,30,9.10
2015,02,05,07,31,9.20
2015,02,05,07,32,9.20
2015,02,05,07,33,9.20
2015,02,05,07,34,9.20
2015,02,05,07,35,9.20
2015,02,05,07,36,9.20
2015,02,05,07,37,9.20
2015,02,05,07,38,9.20
2015,02,05,07,39,9.20
2015,02,05,07,40,9.20
2015,02,05,07,41,9.20
2015,02,05,07,42,9.20
2015,02,05,07,43,9.20
2015,02,05,07,44,9.20
2015,02,05,07,45,9.20
2015,02,05,07,46,9.20
2015,02,05,07,47,9.20
2015,02,05,07,48,9.20
2015,02,05,07,49,9.20
2015,02,05,07,50,9.20
2015,02,05,07,51,9.20
2015,02,05,07,52,9.20
2015,02,05,07,53,9.20
2015,02,05,07,54,9.20
2015,02,05,07,55,9.30
2015,02,05,07,56,9.30
2015,02,05,07,57,9.30
2015,02,05,07,58,9.30
2015,02,05,07,59,9.30
2015,02,05,08,00,9.30
2015,02,05,08,01,9.30
2015,02,05,08,02,9.30
2015,02,05,08,03,9.30
2015,02,05,08,04,9.30
2015,02,05,08,05,9.30
2015,02,05,08,06,9.30
2015,02,05,08,07,9.30
2015,02,05,08,08,9.30
2015,02,05,08,09,9.30
2015,02,05,08,10,9.30
2015,02,05,08,11,9.30
2015,02,05,08,12,9.30
2015,02,05,08,13,9.30
2015,02,05,08,14,9.30
2015,02,05,08,15,9.30
2015,02,05,08,16,9.30
2015,02,05,08,17,9.30
2015,02,05,08,18,9.30
2015,02,05,08,19,9.30
2015,02,05,08,20,9.30
2015,02,05,08,21,9.30
2015,02,05,08,22,9.30
2015,02,05,08,23,9.30
2015,02,05,08,24,9.30
2015,02,05,08,25,9.30
2015,02,05,08,26,9.30
2015,02,05,08,27,9.30
2015,02,05,08,28,9.30
2015,02,05,08,29,9.30
2015,02,05,08,30,9.30
2015,02,05,08,31,9.30
2015,02,05,08,32,9.30
2015,02,05,08,33,9.30
2015,02,05,08,34,9.30
2015,02,05,08,35,9.30
2015,02,05,08,36,9.30
2015,02,05,08,37,9.30
2015,02,05,08,38,9.30
2015,02,05,08,39,9.30
2015,02,05,08,40,9.30
2015,02,05,08,41,9.30
2015,02,05,08,42,9.30
2015,02,05,08,43,9.30
2015,02,05,08,44,9.30
2015,02,05,08,45,9.30
2015,02,05,08,46,9.30
2015,02,05,08,47,9.30
2015,02,05,08,48,9.30
2015,02,05,08,49,9.40
2015,02,05,08,50,9.40
2015,02,05,08,51,9.40
2015,02,05,08,52,9.40
2015,02,05,08,53,9.40
2015,02,05,08,54,9.40
2015,02,05,08,55,9.40
2015,02,05,08,56,9.40
2015,02,05,08,57,9.40
2015,02,05,08,58,9.40
2015,02,05,08,59,9.50
2015,02,05,09,00,9.50
2015,02,05,09,01,9.50
2015,02,05,09,02,9.50
2015,02,05,09,03,9.50
2015,02,05,09,04,9.50
2015,02,05,09,05,9.60
2015,02,05,09,06,9.60
2015,02,05,09,07,9.60
2015,02,05,09,08,9.60
2015,02,05,09,09,9.60
2015,02,05,09,10,9.60
2015,02,05,09,11,9.60
2015,02,05,09,12,9.60
2015,02,05,09,13,9.60
2015,02,05,09,14,9.60
2015,02,05,09,15,9.60
2015,02,05,09,16,9.70
2015,02,05,09,17,9.70
2015,02,05,09,18,9.70
2015,02,05,09,19,9.70
2015,02,05,09,20,9.70
2015,02,05,09,21,9.70
2015,02,05,09,22,9.70
2015,02,05,09,23,9.70
2015,02,05,09,24,9.70
2015,02,05,09,25,9.80
2015,02,05,09,26,9.80
2015,02,05,09,27,9.80
2015,02,05,09,28,9.80
2015,02,05,09,29,9.80
2015,02,05,09,30,9.80
2015,02,05,09,31,9.80
2015,02,05,09,32,9.90
2015,02,05,09,33,9.90
2015,02,05,09,34,9.90
2015,02,05,09,35,9.90
2015,02,05,09,36,9.90
2015,02,05,09,37,9.90
2015,02,05,09,38,9.90
2015,02,05,09,39,10.00
2015,02,05,09,40,10.00
2015,02,05,09,41,10.00
2015,02,05,09,42,10.00
2015,02,05,09,43,10.00
2015,02,05,09,44,10.10
2015,02,05,09,45,10.10
2015,02,05,09,46,10.20
2015,02,05,09,47,10.20
2015,02,05,09,48,10.20
2015,02,05,09,49,10.20
2015,02,05,09,50,10.30
2015,02,05,09,51,10.30
2015,02,05,09,52,10.40
2015,02,05,09,53,10.40
2015,02,05,09,54,10.50
2015,02,05,09,55,10.50
2015,02,05,09,56,10.50
2015,02,05,09,57,10.60
2015,02,05,09,58,10.60
2015,02,05,09,59,10.60
2015,02,05,10,00,10.60
2015,02,05,10,01,10.60
2015,02,05,10,02,10.60
2015,02,05,10,03,10.60
2015,02,05,10,04,10.60
2015,02,05,10,05,10.50
2015,02,05,10,06,10.50
2015,02,05,10,07,10.50
2015,02,05,10,08,10.40
2015,02,05,10,09,10.40
2015,02,05,10,10,10.40
2015,02,05,10,11,10.40
2015,02,05,10,12,10.40
2015,02,05,10,13,10.50
2015,02,05,10,14,10.40
2015,02,05,10,15,10.40
2015,02,05,10,16,10.50
2015,02,05,10,17,10.50
2015,02,05,10,18,10.50
2015,02,05,10,19,10.50
2015,02,05,10,20,10.60
2015,02,05,10,21,10.60
2015,02,05,10,22,10.60
2015,02,05,10,23,10.60
2015,02,05,10,24,10.60
2015,02,05,10,25,10.70
2015,02,05,10,26,10.70
2015,02,05,10,27,10.70
2015,02,05,10,28,10.80
2015,02,05,10,29,10.80
2015,02,05,10,30,10.90
2015,02,05,10,31,10.90
2015,02,05,10,32,10.90
2015,02,05,10,33,10.90
2015,02,05,10,34,10.90
2015,02,05,10,35,10.90
2015,02,05,10,36,11.00
2015,02,05,10,37,10.90
2015,02,05,10,38,10.90
2015,02,05,10,39,10.90
2015,02,05,10,40,10.80
2015,02,05,10,41,10.90
2015,02,05,10,42,10.90
2015,02,05,10,43,10.90
2015,02,05,10,44,10.90
2015,02,05,10,45,10.90
2015,02,05,10,46,10.80
2015,02,05,10,47,10.80
2015,02,05,10,48,10.80
2015,02,05,10,49,10.80
2015,02,05,10,50,10.80
2015,02,05,10,51,10.80
2015,02,05,10,52,10.80
2015,02,05,10,53,10.90
2015,02,05,10,54,10.90
2015,02,05,10,55,10.90
2015,02,05,10,56,11.00
2015,02,05,10,57,11.00
2015,02,05,10,58,11.00
2015,02,05,10,59,11.10
2015,02,05,11,00,11.10
2015,02,05,11,01,11.10
2015,02,05,11,02,11.10
2015,02,05,11,03,11.00
2015,02,05,11,04,11.00
2015,02,05,11,05,10.90
2015,02,05,11,06,10.90
2015,02,05,11,07,10.90
2015,02,05,11,08,10.90
2015,02,05,11,09,10.90
2015,02,05,11,10,10.90
2015,02,05,11,11,10.90
2015,02,05,11,12,10.90
2015,02,05,11,13,10.90
2015,02,05,11,14,10.90
2015,02,05,11,15,11.00
2015,02,05,11,16,11.00
2015,02,05,11,17,11.00
2015,02,05,11,18,11.10
2015,02,05,11,19,11.10
2015,02,05,11,20,11.10
2015,02,05,11,21,11.10
2015,02,05,11,22,11.20
2015,02,05,11,23,11.10
2015,02,05,11,24,11.10
2015,02,05,11,25,11.20
2015,02,05,11,26,11.20
2015,02,05,11,27,11.20
2015,02,05,11,28,11.30
2015,02,05,11,29,11.30
2015,02,05,11,30,11.40
2015,02,05,11,31,11.40
2015,02,05,11,32,11.40
2015,02,05,11,33,11.40
2015,02,05,11,34,11.40
2015,02,05,11,35,11.40
2015,02,05,11,36,11.40
2015,02,05,11,37,11.40
2015,02,05,11,38,11.40
2015,02,05,11,39,11.50
2015,02,05,11,40,11.50
2015,02,05,11,41,11.50
2015,02,05,11,42,11.60
2015,02,05,11,43,11.60
2015,02,05,11,44,11.60
2015,02,05,11,45,11.60
2015,02,05,11,46,11.50
2015,02,05,11,47,11.50
2015,02,05,11,48,11.40
2015,02,05,11,49,11.40
2015,02,05,11,50,11.40
2015,02,05,11,51,11.40
2015,02,05,11,52,11.40
2015,02,05,11,53,11.40
2015,02,05,11,54,11.40
2015,02,05,11,55,11.40
2015,02,05,11,56,11.40
2015,02,05,11,57,11.40
2015,02,05,11,58,11.40
2015,02,05,11,59,11.40
2015,02,05,12,00,11.40
2015,02,05,12,01,11.40
2015,02,05,12,02,11.40
2015,02,05,12,03,11.40
2015,02,05,12,04,11.40
2015,02,05,12,05,11.40
2015,02,05,12,06,11.40
2015,02,05,12,07,11.40
2015,02,05,12,08,11.40
2015,02,05,12,09,11.40
2015,02,05,12,10,11.50
2015,02,05,12,11,11.50
2015,02,05,12,12,11.50
2015,02,05,12,13,11.50
2015,02,05,12,14,11.50
2015,02,05,12,15,11.50
2015,02,05,12,16,11.50
2015,02,05,12,17,11.50
2015,02,05,12,18,11.50
2015,02,05,12,19,11.50
2015,02,05,12,20,11.50
2015,02,05,12,21,11.50
2015,02,05,12,22,11.50
2015,02,05,12,23,11.50
2015,02,05,12,24,11.40
2015,02,05,12,25,11.40
2015,02,05,12,26,11.40
2015,02,05,12,27,11.40
2015,02,05,12,28,11.40
2015,02,05,12,29,11.40
2015,02,05,12,30,11.40
2015,02,05,12,31,11.40
2015,02,05,12,32,11.50
2015,02,05,12,33,11.50
2015,02,05,12,34,11.50
2015,02,05,12,35,11.50
2015,02,05,12,36,11.60
2015,02,05,12,37,11.60
2015,02,05,12,38,11.60
2015,02,05,12,39,11.60
2015,02,05,12,40,11.60
2015,02,05,12,41,11.60
2015,02,05,12,42,11.60
2015,02,05,12,43,11.60
2015,02,05,12,44,11.60
2015,02,05,12,45,11.60
2015,02,05,12,46,11.60
2015,02,05,12,47,11.60
2015,02,05,12,48,11.70
2015,02,05,12,49,11.70
2015,02,05,12,50,11.70
2015,02,05,12,51,11.70
2015,02,05,12,52,11.70
2015,02,05,12,53,11.70
2015,02,05,12,54,11.70
2015,02,05,12,55,11.70
2015,02,05,12,56,11.70
2015,02,05,12,57,11.70
2015,02,05,12,58,11.70
2015,02,05,12,59,11.70
2015,02,05,13,00,11.70
2015,02,05,13,01,11.70
2015,02,05,13,02,11.60
2015,02,05,13,03,11.60
2015,02,05,13,04,11.60
2015,02,05,13,05,11.60
2015,02,05,13,06,11.60
2015,02,05,13,07,11.60
2015,02,05,13,08,11.60
2015,02,05,13,09,11.50
2015,02,05,13,10,11.50
2015,02,05,13,11,11.40
2015,02,05,13,12,11.40
2015,02,05,13,13,11.40
2015,02,05,13,14,11.40
2015,02,05,13,15,11.40
2015,02,05,13,16,11.40
2015,02,05,13,17,11.30
2015,02,05,13,18,11.30
2015,02,05,13,19,11.30
2015,02,05,13,20,11.30
2015,02,05,13,21,11.30
2015,02,05,13,22,11.30
2015,02,05,13,23,11.20
2015,02,05,13,24,11.20
2015,02,05,13,25,11.20
2015,02,05,13,26,11.20
2015,02,05,13,27,11.20
2015,02,05,13,28,11.20
2015,02,05,13,29,11.20
2015,02,05,13,30,11.20
2015,02,05,13,31,11.10
2015,02,05,13,32,11.10
2015,02,05,13,33,11.10
2015,02,05,13,34,11.10
2015,02,05,13,35,11.10
2015,02,05,13,36,11.00
2015,02,05,13,37,11.00
2015,02,05,13,38,11.00
2015,02,05,13,39,11.00
2015,02,05,13,40,11.00
2015,02,05,13,41,10.90
2015,02,05,13,42,10.90
2015,02,05,13,43,10.90
2015,02,05,13,44,10.90
2015,02,05,13,45,10.90
2015,02,05,13,46,10.90
2015,02,05,13,47,10.90
2015,02,05,13,48,10.90
2015,02,05,13,49,10.90
2015,02,05,13,50,10.80
2015,02,05,13,51,10.80
2015,02,05,13,52,10.80
2015,02,05,13,53,10.80
2015,02,05,13,54,10.80
2015,02,05,13,55,10.80
2015,02,05,13,56,10.80
2015,02,05,13,57,10.70
2015,02,05,13,58,10.70
2015,02,05,13,59,10.70
2015,02,05,14,00,10.60
2015,02,05,14,01,10.60
2015,02,05,14,02,10.60
2015,02,05,14,03,10.60
2015,02,05,14,04,10.60
2015,02,05,14,05,10.50
2015,02,05,14,06,10.60
2015,02,05,14,07,10.60
2015,02,05,14,08,10.60
2015,02,05,14,09,10.60
2015,02,05,14,10,10.50
2015,02,05,14,11,10.50
2015,02,05,14,12,10.50
2015,02,05,14,13,10.50
2015,02,05,14,14,10.50
2015,02,05,14,15,10.50
2015,02,05,14,16,10.50
2015,02,05,14,17,10.50
2015,02,05,14,18,10.40
2015,02,05,14,19,10.40
2015,02,05,14,20,10.40
2015,02,05,14,21,10.40
2015,02,05,14,22,10.40
2015,02,05,14,23,10.40
2015,02,05,14,24,10.40
2015,02,05,14,25,10.40
2015,02,05,14,26,10.40
2015,02,05,14,27,10.40
2015,02,05,14,28,10.40
2015,02,05,14,29,10.40
2015,02,05,14,30,10.40
2015,02,05,14,31,10.40
2015,02,05,14,32,10.40
2015,02,05,14,33,10.40
2015,02,05,14,34,10.40
2015,02,05,14,35,10.30
2015,02,05,14,36,10.40
2015,02,05,14,37,10.30
2015,02,05,14,38,10.30
2015,02,05,14,39,10.30
2015,02,05,14,40,10.40
2015,02,05,14,41,10.40
2015,02,05,14,42,10.40
2015,02,05,14,43,10.40
2015,02,05,14,44,10.40
2015,02,05,14,45,10.40
2015,02,05,14,46,10.50
2015,02,05,14,47,10.50
2015,02,05,14,48,10.50
2015,02,05,14,49,10.50
2015,02,05,14,50,10.50
2015,02,05,14,51,10.50
2015,02,05,14,52,10.60
2015,02,05,14,53,10.60
2015,02,05,14,54,10.60
2015,02,05,14,55,10.60
2015,02,05,14,56,10.50
2015,02,05,14,57,10.50
2015,02,05,14,58,10.50
2015,02,05,14,59,10.50
2015,02,05,15,00,10.50
2015,02,05,15,01,10.50
2015,02,05,15,02,10.50
2015,02,05,15,03,10.50
2015,02,05,15,04,10.60
2015,02,05,15,05,10.60
2015,02,05,15,06,10.60
2015,02,05,15,07,10.50
2015,02,05,15,08,10.50
2015,02,05,15,09,10.50
2015,02,05,15,10,10.50
2015,02,05,15,11,10.50
2015,02,05,15,12,10.50
2015,02,05,15,13,10.50
2015,02,05,15,14,10.50
2015,02,05,15,15,10.50
2015,02,05,15,16,10.50
2015,02,05,15,17,10.50
2015,02,05,15,18,10.50
2015,02,05,15,19,10.60
2015,02,05,15,20,10.60
2015,02,05,15,21,10.60
2015,02,05,15,22,10.60
2015,02,05,15,23,10.60
2015,02,05,15,24,10.60
2015,02,05,15,25,10.60
2015,02,05,15,26,10.60
2015,02,05,15,27,10.60
2015,02,05,15,28,10.60
2015,02,05,15,29,10.60
2015,02,05,15,30,10.60
2015,02,05,15,31,10.60
2015,02,05,15,32,10.60
2015,02,05,15,33,10.60
2015,02,05,15,34,10.50
2015,02,05,15,35,10.50
2015,02,05,15,36,10.50
2015,02,05,15,37,10.50
2015,02,05,15,38,10.50
2015,02,05,15,39,10.50
2015,02,05,15,40,10.50
2015,02,05,15,41,10.40
2015,02,05,15,42,10.40
2015,02,05,15,43,10.40
2015,02,05,15,44,10.40
2015,02,05,15,45,10.40
2015,02,05,15,46,10.40
2015,02,05,15,47,10.50
2015,02,05,15,48,10.50
2015,02,05,15,49,10.50
2015,02,05,15,50,10.50
2015,02,05,15,51,10.50
2015,02,05,15,52,10.50
2015,02,05,15,53,10.50
2015,02,05,15,54,10.60
2015,02,05,15,55,10.60
2015,02,05,15,56,10.60
2015,02,05,15,57,10.60
2015,02,05,15,58,10.60
2015,02,05,15,59,10.60
2015,02,05,16,00,10.60
2015,02,05,16,01,10.60
2015,02,05,16,02,10.60
2015,02,05,16,03,10.60
2015,02,05,16,04,10.60
2015,02,05,16,05,10.60
2015,02,05,16,06,10.60
2015,02,05,16,07,10.60
2015,02,05,16,08,10.60
2015,02,05,16,09,10.60
2015,02,05,16,10,10.60
2015,02,05,16,11,10.60
2015,02,05,16,12,10.60
2015,02,05,16,13,10.60
2015,02,05,16,14,10.60
2015,02,05,16,15,10.60
2015,02,05,16,16,10.60
2015,02,05,16,17,10.70
2015,02,05,16,18,10.70
2015,02,05,16,19,10.60
2015,02,05,16,20,10.60
2015,02,05,16,21,10.60
2015,02,05,16,22,10.70
2015,02,05,16,23,10.70
2015,02,05,16,24,10.70
2015,02,05,16,25,10.70
2015,02,05,16,26,10.70
2015,02,05,16,27,10.70
2015,02,05,16,28,10.70
2015,02,05,16,29,10.70
2015,02,05,16,30,10.70
2015,02,05,16,31,10.70
2015,02,05,16,32,10.70
2015,02,05,16,33,10.70
2015,02,05,16,34,10.70
2015,02,05,16,35,10.80
2015,02,05,16,36,10.80
2015,02,05,16,37,10.80
2015,02,05,16,38,10.80
2015,02,05,16,39,10.80
2015,02,05,16,40,10.80
2015,02,05,16,41,10.80
2015,02,05,16,42,10.80
2015,02,05,16,43,10.80
2015,02,05,16,44,10.80
2015,02,05,16,45,10.80
2015,02,05,16,46,10.80
2015,02,05,16,47,10.80
2015,02,05,16,48,10.80
2015,02,05,16,49,10.80
2015,02,05,16,50,10.80
2015,02,05,16,51,10.80
2015,02,05,16,52,10.80
2015,02,05,16,53,10.80
2015,02,05,16,54,10.80
2015,02,05,16,55,10.80
2015,02,05,16,56,10.80
2015,02,05,16,57,10.80
2015,02,05,16,58,10.80
2015,02,05,16,59,10.80
2015,02,05,17,00,10.80
2015,02,05,17,01,10.80
2015,02,05,17,02,10.80
2015,02,05,17,03,10.80
2015,02,05,17,04,10.80
2015,02,05,17,05,10.80
2015,02,05,17,06,10.80
2015,02,05,17,07,10.80
2015,02,05,17,08,10.80
2015,02,05,17,09,10.80
2015,02,05,17,10,10.80
2015,02,05,17,11,10.80
2015,02,05,17,12,10.80
2015,02,05,17,13,10.80
2015,02,05,17,14,10.80
2015,02,05,17,15,10.80
2015,02,05,17,16,10.80
2015,02,05,17,17,10.80
2015,02,05,17,18,10.80
2015,02,05,17,19,10.80
2015,02,05,17,20,10.80
2015,02,05,17,21,10.80
2015,02,05,17,22,10.80
2015,02,05,17,23,10.80
2015,02,05,17,24,10.80
2015,02,05,17,25,10.80
2015,02,05,17,26,10.80
2015,02,05,17,27,10.80
2015,02,05,17,28,10.80
2015,02,05,17,29,10.80
2015,02,05,17,30,10.80
2015,02,05,17,31,10.70
2015,02,05,17,32,10.70
2015,02,05,17,33,10.70
2015,02,05,17,34,10.70
2015,02,05,17,35,10.70
2015,02,05,17,36,10.70
2015,02,05,17,37,10.70
2015,02,05,17,38,10.70
2015,02,05,17,39,10.70
2015,02,05,17,40,10.70
2015,02,05,17,41,10.70
2015,02,05,17,42,10.70
2015,02,05,17,43,10.70
2015,02,05,17,44,10.70